Hourly Data Report for December 08, 2003

SHERBROOKE A
QUEBEC

45°26'00.000" N
71°41'00.000" W
241.40 m
7028124
71610
YSC

Download Data

Hourly Data (December 2003)
Hourly Data Report for December 8, 2003
TIME
LST
Temp Definition
°C
Dew Point Definition
°C
Rel Hum Definition
%
Precip. Amount Definition
mm

Wind Dir Definition
10's deg

Wind Spd Definition
km/h
Visibility Definition
km
Stn Press Definition
kPa
Hmdx Definition


Wind Chill Definition


Weather Definition


00:00 -6.9 -9.9 79   30 11 15.0 98.45   -12  
01:00 -6.2 -9.3 79   29 13 15.0 98.46   -12  
02:00 -7.1 -10.8 75   30 11 15.0 98.53   -12  
03:00 -8.3 -12.3 73   31 9 15.0 98.60   -13  
04:00 -8.2 -12.5 71   33 15 15.0 98.64   -15  
05:00 -10.0 -13.5 76   29 11 15.0 98.74   -16  
06:00 -9.2 -13.6 70   31 9 15.0 98.79   -14  
07:00 -11.3 -14.2 79   25 11 15.0 98.83   -17  
08:00 -11.5 -14.6 78   26 7 24.1 98.89   -16 Mainly Clear
09:00 -10.3 -14.1 74   26 13 24.1 98.95   -17 Mainly Clear
10:00 -9.1 -13.7 69   27 17 24.1 99.01   -16 Clear
11:00 -8.1 -13.1 67   27 15 24.1 99.01   -14 Clear
12:00 -7.1 -12.9 63   26 15 24.1 99.00   -13 Clear
13:00 -6.5 -12.7 61   28 15 24.1 98.99   -12 Clear
14:00 -6.4 -12.6 61   26 15 24.1 99.01   -12 Clear
15:00 -6.4 -12.7 61   27 7 24.1 99.06   -10 Clear
16:00 -8.8 -14.2 65   26 9 24.1 99.09   -13 Clear
17:00 -10.4 -13.9 75   27 7 24.1 99.15   -14 Clear
18:00 -14.2 -16.4 83   27 4 15.0 99.20   -17  
19:00 -15.5 -17.9 82     0 15.0 99.24      
20:00 -16.0 -18.1 84   7 6 15.0 99.29   -20  
21:00 -17.2 -19.6 82   9 4 15.0 99.34   -20  
22:00 -19.8 -22.1 82     0 15.0 99.38      
23:00 -20.9 -23.4 80   10 4 15.0 99.44   -24  

Notes on Data Quality.

Legend

  • E = Estimated
  • M = Missing
  • NA = Not Available*
  • [empty] = Indicates an unobserved value
Date modified: